[[{"header":{"parameterUnit":"m.s-1","parameterCategory":1,"la1":30.2991,"la2":30.254,"lo1":-89.0895,"lo2":-89.0444,"dy":0.0017,"dx":0.0017,"nx":28,"ny":28,"refTime":"2025-02-08T03:00:00:Z","depth":0,"parameterNumber":2,"parameterNumberName":"U-component_of_WINDS"},"data":[0,0,0,0,0,0,0,0,0,0,0,0,0,0,0,0,0,0,0,0,0,0,0,0,0,0,0,0,0,0,0,0,0,0,0,0,0,0,0,0,0,0,0,0,0,0,0,0,0,0,0,0,0,0,0,0,0,0,-0.7198,-0.7197,0,-0.7103,-0.7102,-0.7101,-0.7081,-0.7082,-0.7083,-0.7083,-0.6982,-0.6979,-0.6975,0,0,0,0,0,0,0,0,0,0,0,0,0,-0.7356,-0.7354,-0.7198,-0.7197,-0.7195,-0.7103,-0.7102,-0.7101,-0.7081,-0.7082,-0.7083,-0.7084,-0.6983,-0.6979,-0.6975,0,0,0,0,0,0,0,0,0,0,0,0,0,-0.7277,-0.7353,-0.7198,-0.7175,-0.7171,-0.7104,-0.7102,-0.71,-0.7081,-0.7082,-0.7083,-0.7084,-0.6984,-0.698,-0.6975,-0.6922,0,0,-0.6959,-0.6957,0,0,0,0,0,0,0,0,-0.7282,-0.7271,-0.7179,-0.7176,-0.7172,-0.7105,-0.7121,-0.704,-0.7081,-0.7115,-0.7083,-0.7084,-0.7022,-0.7014,-0.6994,-0.6917,-0.6913,-0.6959,-0.6956,-0.6953,-0.6952,0,0,0,0,0,0,0,-0.7287,-0.7275,-0.716,-0.7178,-0.7174,-0.7167,-0.7157,-0.7106,-0.7063,-0.7112,-0.7111,-0.71,-0.702,-0.6998,-0.6991,-0.6911,-0.6959,-0.6954,-0.6951,-0.6949,-0.6785,-0.6784,0,0,0,0,0,0,-0.7298,-0.728,-0.7163,-0.7157,-0.7231,-0.7164,-0.7152,-0.7126,-0.7064,-0.7056,-0.7099,-0.7099,-0.7007,-0.6997,-0.6987,-0.692,-0.6954,-0.6949,-0.6946,-0.6787,-0.6785,-0.6784,0,0,0,0,0,0,-0.7301,-0.7287,-0.7167,-0.7218,-0.7202,-0.716,-0.713,-0.7123,-0.7101,-0.7054,-0.7046,-0.7085,-0.7007,-0.6994,-0.6938,-0.6917,-0.6947,-0.6942,-0.6788,-0.6786,-0.6784,-0.6787,0,0,0,0,0,0,-0.7306,-0.7289,-0.7269,-0.7218,-0.72,-0.7121,-0.7129,-0.7121,-0.7093,-0.7093,-0.7039,-0.7031,-0.7007,-0.6946,-0.6933,-0.691,-0.6938,-0.679,-0.6787,-0.6785,-0.6788,-0.6785,-0.6782,0,0,0,0,0,-0.7311,-0.7273,-0.7268,-0.7254,-0.7175,-0.712,-0.7109,-0.7084,-0.7092,-0.7071,-0.704,-0.7032,-0.6922,-0.694,-0.6926,-0.6901,-0.6791,-0.6788,-0.6785,-0.679,-0.6786,-0.6782,0,0,0,0,0,0,-0.7322,-0.7266,-0.726,-0.7205,-0.7167,-0.7117,-0.709,-0.7081,-0.7039,-0.704,-0.7009,-0.6997,-0.6942,-0.6916,-0.6938,-0.6846,-0.6856,-0.685,-0.6865,-0.6861,-0.6858,-0.6864,-0.6934,0,0,0,0,0,-0.7318,-0.7279,-0.7232,-0.7187,-0.7169,-0.7133,-0.7108,-0.7092,-0.7051,-0.7035,-0.7,-0.696,-0.6915,-0.6887,-0.6844,-0.6785,-0.6772,-0.6761,-0.6758,-0.6756,-0.675,-0.6715,-0.6709,-0.6774,-0.6774,-0.6774,0,0,-0.7309,-0.7274,-0.7251,-0.7188,-0.7158,-0.7116,-0.7119,-0.7076,-0.7045,-0.7027,-0.6972,-0.6946,-0.6898,-0.684,-0.6813,-0.6817,-0.673,-0.6752,-0.675,-0.6746,-0.6712,-0.6705,-0.67,-0.6772,-0.6772,-0.6772,0,0,-0.7271,-0.7241,-0.72,-0.7169,-0.7123,-0.7099,-0.7089,-0.704,-0.7022,-0.6966,-0.6952,-0.6914,-0.6839,-0.6805,-0.6779,-0.6728,-0.6718,-0.6715,-0.6698,-0.6665,-0.6659,-0.6655,-0.6635,-0.6628,-0.671,-0.671,-0.671,0,-0.7265,-0.7204,-0.718,-0.7137,-0.7109,-0.7093,-0.705,-0.7021,-0.6962,-0.6943,-0.6949,-0.6854,-0.6821,-0.6754,-0.6742,-0.6721,-0.6707,-0.672,-0.6663,-0.6657,-0.6653,-0.6633,-0.6626,-0.671,-0.671,-0.671,-0.671,0,-0.7198,-0.7156,-0.7128,-0.7073,-0.7042,-0.6999,-0.6967,-0.6939,-0.6925,-0.69,-0.6843,-0.6803,-0.6751,-0.6735,-0.6721,-0.6665,-0.6669,-0.6669,-0.6678,-0.6647,-0.6628,-0.662,-0.6709,-0.6709,-0.6709,-0.6709,0,0,-0.7163,-0.7095,-0.7085,-0.706,-0.7007,-0.6973,-0.6929,-0.688,-0.6855,-0.6815,-0.6776,-0.6713,-0.6713,-0.6682,-0.6664,-0.6635,-0.6596,-0.6639,-0.6637,-0.663,-0.653,-0.6529,-0.6521,-0.659,-0.6588,-0.6587,-0.6533,0,-0.7117,-0.704,-0.7016,-0.695,-0.691,-0.6894,-0.6855,-0.6818,-0.6794,-0.6754,-0.6727,-0.6682,-0.6686,-0.6667,-0.6638,-0.6607,-0.6575,-0.6611,-0.6551,-0.6549,-0.6561,-0.6511,-0.651,-0.6461,-0.6526,-0.6525,-0.6524,0,-0.7054,-0.7014,-0.6944,-0.6896,-0.6878,-0.6844,-0.6796,-0.6759,-0.6716,-0.67,-0.6666,-0.6651,-0.6602,-0.6616,-0.6548,-0.6573,-0.6547,-0.6528,-0.6525,-0.6517,-0.6533,-0.65,-0.6445,-0.6437,-0.6512,-0.6513,-0.6514,0,-0.7033,-0.6962,-0.691,-0.6889,-0.6832,-0.6808,-0.6783,-0.6741,-0.6712,-0.667,-0.6651,-0.6603,-0.6577,-0.6539,-0.6511,-0.6524,-0.6444,-0.6456,-0.6428,-0.6428,-0.641,-0.6411,-0.6349,-0.6397,-0.6397,-0.6397,-0.6397,0,-0.6984,-0.6941,-0.69,-0.6868,-0.6819,-0.6793,-0.6745,-0.6719,-0.6681,-0.6643,-0.6627,-0.659,-0.6556,-0.6515,-0.6492,-0.6438,-0.6426,-0.6411,-0.6405,-0.6411,-0.6413,-0.6392,-0.6394,-0.6395,-0.6396,-0.6396,-0.6396,0,-0.6952,-0.6923,-0.6865,-0.6817,-0.6803,-0.6769,-0.6726,-0.6694,-0.6669,-0.662,-0.6607,-0.6568,-0.6518,-0.6487,-0.6424,-0.6408,-0.6348,-0.6345,-0.6363,-0.636,-0.6333,-0.6335,-0.6253,-0.624,-0.6299,-0.6299,-0.6298,0,-0.6921,-0.6888,-0.6836,-0.6809,-0.6784,-0.6742,-0.6713,-0.6685,-0.6655,-0.6603,-0.6577,-0.6527,-0.6485,-0.6406,-0.6371,-0.6322,-0.6316,-0.629,-0.6308,-0.6315,-0.6313,-0.6314,-0.631,-0.6287,-0.6286,-0.6286,-0.6286,0,-0.687,-0.6857,-0.6816,-0.677,-0.6736,-0.6698,-0.666,-0.6639,-0.6604,-0.6571,-0.6521,-0.6489,-0.6425,-0.6374,-0.6322,-0.6295,-0.6283,-0.6281,-0.6271,-0.6276,-0.6288,-0.6279,-0.6353,-0.6282,-0.6282,-0.6283,-0.6283,-0.6283,-0.6836,-0.6805,-0.6764,-0.6718,-0.6687,-0.6652,-0.6618,-0.659,-0.6548,-0.6494,-0.648,-0.6427,-0.6384,-0.6313,-0.6284,-0.6241,-0.6244,-0.6231,-0.6227,-0.6224,-0.6223,-0.6296,-0.6232,-0.6232,-0.6232,-0.6232,-0.6232,0,-0.6782,-0.6754,-0.6713,-0.6661,-0.6625,-0.6619,-0.6577,-0.6546,-0.65,-0.6461,-0.6421,-0.6362,-0.6313,-0.6274,-0.6224,-0.6197,-0.619,-0.6184,-0.6185,-0.6178,-0.6224,-0.6236,-0.619,-0.619,-0.619,-0.619,-0.619,-0.619,-0.675,-0.6697,-0.6679,-0.661,-0.6582,-0.6531,-0.6507,-0.6474,-0.6442,-0.6378,-0.6338,-0.6313,-0.6273,-0.6219,-0.6174,-0.6163,-0.6144,-0.6139,-0.6127,-0.617,-0.6175,-0.6179,-0.6191,-0.6136,-0.6136,-0.6084,-0.6084,-0.6084]},{"header":{"parameterUnit":"m.s-1","parameterCategory":1,"la1":30.2991,"la2":30.254,"lo1":-89.0895,"lo2":-89.0444,"dy":0.0017,"dx":0.0017,"nx":28,"ny":28,"refTime":"2025-02-08T03:00:00:Z","depth":0,"parameterNumber":3,"parameterNumberName":"V-component_of_WINDS"},"data":[0,0,0,0,0,0,0,0,0,0,0,0,0,0,0,0,0,0,0,0,0,0,0,0,0,0,0,0,0,0,0,0,0,0,0,0,0,0,0,0,0,0,0,0,0,0,0,0,0,0,0,0,0,0,0,0,0,0,4.2197,4.2199,0,4.2436,4.2438,4.2441,4.2481,4.2479,4.2477,4.2475,4.2721,4.2729,4.2737,0,0,0,0,0,0,0,0,0,0,0,0,0,4.1777,4.1784,4.2197,4.22,4.2203,4.2435,4.2439,4.2442,4.2482,4.2479,4.2477,4.2474,4.2718,4.2728,4.2738,0,0,0,0,0,0,0,0,0,0,0,0,0,4.1982,4.1787,4.2196,4.2251,4.2258,4.2435,4.2439,4.2443,4.2482,4.2479,4.2476,4.2473,4.2715,4.2727,4.2739,4.2879,0,0,4.2778,4.2783,0,0,0,0,0,0,0,0,4.197,4.1997,4.224,4.2247,4.2256,4.2426,4.2381,4.2589,4.2483,4.2397,4.2475,4.2472,4.2625,4.2645,4.2696,4.289,4.2901,4.2779,4.2787,4.2792,4.2796,0,0,0,0,0,0,0,4.1956,4.1987,4.2291,4.2243,4.2253,4.2264,4.2289,4.242,4.2525,4.2404,4.2408,4.2436,4.2629,4.2684,4.2702,4.2904,4.2779,4.279,4.2798,4.2803,4.3228,4.3231,0,0,0,0,0,0,4.1932,4.1975,4.2284,4.2298,4.2102,4.2274,4.2303,4.2374,4.2524,4.2544,4.2438,4.2437,4.2664,4.2688,4.2711,4.2887,4.2792,4.2804,4.2811,4.3224,4.3229,4.3233,0,0,0,0,0,0,4.1923,4.1959,4.2274,4.2138,4.2179,4.2284,4.2364,4.238,4.2436,4.2549,4.2568,4.2475,4.2663,4.2693,4.2838,4.2896,4.281,4.2821,4.322,4.3226,4.3231,4.3238,0,0,0,0,0,0,4.191,4.1955,4.2009,4.2139,4.2186,4.2396,4.2368,4.2387,4.2458,4.2458,4.2589,4.2608,4.2662,4.2818,4.285,4.2912,4.2831,4.3215,4.3222,4.3229,4.3234,4.3244,4.3252,0,0,0,0,0,4.1895,4.2001,4.2011,4.2048,4.2255,4.2399,4.2426,4.2487,4.2462,4.2518,4.2591,4.2604,4.2884,4.2833,4.2869,4.2936,4.3212,4.322,4.3228,4.3229,4.3242,4.3252,0,0,0,0,0,0,4.1875,4.2019,4.2032,4.2183,4.2279,4.2406,4.2477,4.2497,4.2602,4.2598,4.2668,4.2698,4.2839,4.2901,4.2842,4.308,4.3046,4.3062,4.3034,4.3047,4.3056,4.304,4.2842,0,0,0,0,0,4.1888,4.1993,4.2113,4.2234,4.2282,4.2371,4.2436,4.2474,4.2576,4.2617,4.2701,4.2799,4.291,4.2981,4.3089,4.3242,4.3272,4.3305,4.3315,4.3322,4.3336,4.3424,4.3441,4.326,4.326,4.326,0,0,4.1917,4.2008,4.207,4.2233,4.2312,4.242,4.2405,4.2519,4.2601,4.2634,4.2777,4.2841,4.2956,4.3106,4.3176,4.3162,4.3392,4.3332,4.3337,4.3348,4.3435,4.3452,4.3467,4.3266,4.3265,4.3264,0,0,4.2025,4.2103,4.2214,4.2294,4.2413,4.2472,4.2498,4.2623,4.2668,4.2811,4.284,4.2937,4.3125,4.3207,4.3273,4.3413,4.343,4.3446,4.3496,4.3581,4.3596,4.3609,4.3662,4.368,4.3458,4.3459,4.3459,0,4.2045,4.2209,4.2269,4.2384,4.2456,4.2491,4.2605,4.2679,4.2827,4.2877,4.2859,4.3097,4.3177,4.3348,4.3382,4.3433,4.3468,4.3433,4.3588,4.3602,4.3615,4.3667,4.3686,4.346,4.346,4.346,4.3459,0,4.223,4.2343,4.2418,4.2562,4.2642,4.2755,4.2834,4.2908,4.2939,4.3,4.3147,4.3243,4.3373,4.3415,4.3446,4.3592,4.358,4.3574,4.3542,4.3633,4.3683,4.3703,4.3462,4.3461,4.3461,4.3461,0,0,4.2333,4.2509,4.2536,4.2603,4.2737,4.2827,4.2942,4.3069,4.3132,4.3232,4.3333,4.3492,4.3488,4.3563,4.3603,4.3678,4.3787,4.3664,4.3668,4.3686,4.3956,4.3962,4.3984,4.3797,4.3801,4.3804,4.3948,0,4.246,4.2668,4.2726,4.2902,4.3009,4.3044,4.3145,4.3239,4.3299,4.3399,4.3465,4.3578,4.3562,4.3609,4.3683,4.3757,4.3842,4.3747,4.3894,4.3898,4.3868,4.401,4.4016,4.4147,4.3967,4.3971,4.3973,0,4.2636,4.2741,4.2928,4.3051,4.3098,4.3188,4.331,4.3404,4.3512,4.355,4.3634,4.3668,4.3792,4.3751,4.3923,4.3857,4.392,4.3965,4.3972,4.3991,4.3944,4.4036,4.419,4.4211,4.4004,4.4001,4.3999,0,4.2697,4.2885,4.3023,4.3078,4.3224,4.3287,4.335,4.3455,4.3528,4.3634,4.3683,4.3801,4.3867,4.3959,4.4025,4.3988,4.4193,4.4156,4.423,4.4229,4.4275,4.4272,4.4445,4.4309,4.4308,4.4308,4.4308,0,4.2835,4.2949,4.3053,4.3137,4.3266,4.3332,4.3458,4.3523,4.3616,4.3715,4.3751,4.3843,4.3923,4.4026,4.4077,4.4214,4.4243,4.4279,4.4292,4.4278,4.4274,4.4323,4.4317,4.4313,4.4312,4.4311,4.431,0,4.2927,4.3,4.3153,4.3278,4.3313,4.3403,4.3511,4.3595,4.3656,4.3781,4.3814,4.391,4.4033,4.4107,4.4262,4.4297,4.4449,4.4457,4.4413,4.442,4.4492,4.4485,4.4705,4.4739,4.4577,4.4578,4.4579,0,4.3011,4.31,4.3235,4.3305,4.3369,4.3479,4.3555,4.3622,4.3699,4.3829,4.3898,4.4024,4.4128,4.4324,4.4408,4.4528,4.4541,4.4609,4.4559,4.4543,4.4546,4.4542,4.4553,4.4619,4.462,4.4622,4.4623,0,4.3155,4.3188,4.3294,4.3415,4.3504,4.3602,4.3699,4.3754,4.3838,4.3923,4.405,4.413,4.429,4.4415,4.4542,4.4609,4.4631,4.4637,4.4662,4.465,4.4623,4.4643,4.4441,4.4633,4.4632,4.4631,4.463,4.463,4.3249,4.3331,4.344,4.3558,4.3639,4.3729,4.3816,4.3887,4.3994,4.413,4.4163,4.4297,4.4404,4.4577,4.4646,4.4752,4.4742,4.4776,4.4785,4.4793,4.4797,4.4603,4.4775,4.4775,4.4775,4.4775,4.4774,0,4.3398,4.347,4.3578,4.3714,4.3808,4.3819,4.3928,4.4006,4.4123,4.4221,4.4323,4.447,4.4592,4.4685,4.481,4.4878,4.4892,4.4909,4.4907,4.4922,4.4798,4.4766,4.4896,4.4896,4.4896,4.4896,4.4896,4.4896,4.3487,4.3627,4.3673,4.3853,4.3924,4.4056,4.4118,4.4202,4.4281,4.4443,4.4545,4.4605,4.4702,4.4834,4.4947,4.4971,4.5018,4.5034,4.506,4.4943,4.493,4.4918,4.4889,4.5042,4.5042,4.5177,4.5178,4.5179]}]]